GW1075 Weather Reports


time (UTC)temp
F
wind
direction
speed
knots
gust
knots
rain 1hr
in
rain 24hr
in
rain mn
in
humidity
%
barometer
mb
20260506092003 60 315 0.9 3.5 0.00 0.10 0.00 73 1011.1
20260506091506 60 360 0.9 4.3 0.00 0.10 0.00 73 1011.0
20260506091004 60 33 1.7 4.3 0.00 0.10 0.00 73 1010.9
20260506090504 60 24 0.9 3.5 0.00 0.10 0.00 73 1011.0
20260506090006 60 17 0.9 3.5 0.00 0.10 0.00 74 1010.9
20260506085503 60 326 0.9 3.5 0.00 0.10 0.00 73 1010.8
20260506085006 60 41 0.9 3.5 0.00 0.10 0.00 73 1010.8
20260506084505 60 314 0.9 2.6 0.00 0.10 0.00 72 1010.7
20260506084007 60 360 0.9 2.6 0.00 0.10 0.00 73 1010.6
20260506083504 60 306 0.9 4.3 0.00 0.10 0.00 73 1010.6
20260506083006 61 39 0.9 4.3 0.00 0.10 0.00 74 1010.6
20260506082503 60 32 0.9 2.6 0.00 0.10 0.00 73 1010.5
20260506082005 60 57 0.0 3.5 0.00 0.10 0.00 74 1010.3
20260506081504 60 343 0.9 3.5 0.00 0.10 0.00 73 1010.2
20260506081003 60 45 0.0 1.7 0.00 0.10 0.00 73 1010.1
20260506080504 61 53 0.9 2.6 0.00 0.10 0.00 73 1010.2
20260506073506 61 348 0.0 2.6 0.00 0.10 0.00 73 1010.3
20260506073008 61 51 0.0 4.3 0.00 0.10 0.00 73 1010.6
20260506072504 61 275 1.7 4.3 0.00 0.10 0.00 73 1010.6
20260506072005 61 5 0.9 2.6 0.00 0.10 0.00 73 1010.6
20260506071507 62 322 0.9 4.3 0.00 0.10 0.00 73 1010.4
20260506071003 62 37 1.7 4.3 0.00 0.10 0.00 73 1010.4
20260506070503 62 66 0.0 3.5 0.00 0.10 0.00 73 1010.5
20260506062504 63 337 0.9 3.5 0.00 0.10 0.00 73 1010.3
20260506062006 63 53 0.0 3.5 0.00 0.10 0.00 73 1010.4
20260506061509 63 70 0.0 3.5 0.00 0.10 0.00 74 1010.3
20260506061005 63 56 0.9 5.2 0.00 0.10 0.00 74 1010.3
20260506060504 63 46 0.9 5.2 0.00 0.10 0.00 74 1010.4
20260506051005 66 65 1.7 3.5 0.00 0.10 0.00 73 1010.1
20260506050507 66 26 0.9 3.5 0.00 0.10 0.00 74 1010.2
20260506045005 66 277 0.9 7.0 0.00 0.10 0.10 74 1010.3
20260506044513 66 288 1.7 5.2 0.00 0.10 0.10 73 1010.2
20260506044004 66 279 1.7 6.1 0.00 0.10 0.10 73 1010.2
20260506043505 67 360 1.7 6.1 0.00 0.10 0.10 72 1010.2
20260506043013 68 302 0.9 4.3 0.00 0.10 0.10 73 1010.1
20260506042505 68 33 0.9 4.3 0.00 0.10 0.10 73 1009.9
20260506042006 68 55 0.9 3.5 0.00 0.10 0.10 72 1009.8
20260506041510 68 309 0.0 3.5 0.00 0.10 0.10 73 1009.8
20260506041007 69 311 0.9 3.5 0.00 0.10 0.10 73 1009.7
20260506040506 69 84 1.7 6.1 0.00 0.10 0.10 72 1009.4
20260506040014 69 5 1.7 6.1 0.00 0.10 0.10 72 1009.3
20260506035510 70 52 0.9 4.3 0.00 0.10 0.10 72 1009.5
20260506035009 70 337 0.9 5.2 0.00 0.10 0.10 72 1009.5
20260506034510 70 52 1.7 6.1 0.00 0.10 0.10 72 1009.3
20260506034002 70 346 1.7 6.1 0.00 0.10 0.10 71 1009.3
20260506033502 71 289 1.7 4.3 0.00 0.10 0.10 72 1009.1
20260506033002 71 15 1.7 7.8 0.00 0.10 0.10 72 1009.0
20260506032502 71 40 1.7 7.8 0.00 0.10 0.10 72 1009.0
20260506032005 71 96 0.9 5.2 0.00 0.10 0.10 72 1008.9
20260506031506 71 38 0.9 4.3 0.00 0.10 0.10 71 1008.7
20260506031004 72 352 0.9 4.3 0.00 0.10 0.10 71 1008.8
20260506030507 72 53 1.7 5.2 0.00 0.10 0.10 71 1008.8
20260506030024 72 346 0.9 5.2 0.00 0.10 0.10 70 1008.8
20260506025506 73 272 0.9 3.5 0.00 0.10 0.10 69 1008.5
20260506025007 73 307 0.9 4.3 0.00 0.10 0.10 69 1008.4
20260506024537 73 360 0.9 5.2 0.00 0.10 0.10 68 1008.1
20260506024009 73 339 1.7 4.3 0.00 0.10 0.10 68 1008.1
20260506023503 73 350 1.7 4.3 0.00 0.10 0.10 68 1007.9
20260506023010 74 55 0.9 7.0 0.00 0.10 0.10 68 1007.6
20260506022504 74 20 1.7 7.0 0.00 0.10 0.10 69 1007.6
20260506022002 74 42 0.9 4.3 0.00 0.10 0.10 69 1007.2
20260506021503 74 21 0.9 4.3 0.00 0.10 0.10 69 1007.0
20260506021006 74 74 0.9 4.3 0.00 0.10 0.10 69 1007.0
20260506020502 74 32 0.9 5.2 0.00 0.10 0.10 68 1007.0
20260506020010 74 287 0.9 5.2 0.00 0.10 0.10 68 1007.1
20260506015506 74 350 0.9 4.3 0.00 0.10 0.10 69 1006.8
20260506015007 74 352 0.9 4.3 0.00 0.10 0.10 69 1006.9
20260506014516 75 352 0.9 3.5 0.00 0.10 0.10 70 1007.0
20260506014006 75 46 1.7 3.5 0.00 0.10 0.10 70 1006.8
20260506013511 75 360 0.0 7.8 0.00 0.10 0.10 70 1006.5
20260506013032 76 23 1.7 7.8 0.00 0.10 0.10 69 1006.4
20260506012508 76 15 0.9 4.3 0.00 0.10 0.10 70 1006.5
20260506012004 76 46 0.9 4.3 0.00 0.10 0.10 69 1006.7
20260506011503 76 312 0.9 4.3 0.00 0.10 0.10 69 1006.8
20260506011007 77 86 0.9 3.5 0.00 0.10 0.10 70 1006.3
20260506010502 76 156 0.0 3.5 0.00 0.10 0.10 72 1006.0
20260506010010 76 26 0.9 3.5 0.04 0.10 0.10 74 1006.1
20260506005503 76 56 0.0 1.7 0.08 0.10 0.10 76 1005.6
20260506005006 76 360 0.9 1.7 0.10 0.10 0.10 74 1005.9
20260506004512 76 341 0.0 1.7 0.10 0.10 0.10 73 1005.9
20260506004008 75 317 0.9 1.7 0.10 0.10 0.10 75 1005.9
20260506003506 76 315 0.0 2.6 0.10 0.10 0.10 75 1006.0
20260506003017 76 67 0.0 6.1 0.10 0.10 0.10 74 1005.8
20260506002508 77 352 1.7 6.1 0.10 0.10 0.10 72 1006.0
20260506002010 77 344 0.9 8.7 0.10 0.10 0.10 75 1005.9
20260506001521 77 275 2.6 8.7 0.10 0.10 0.10 75 1005.8
20260506001009 78 310 0.9 1.7 0.10 0.10 0.10 82 1005.9
20260506000505 79 352 0.0 1.7 0.10 0.10 0.10 79 1005.5
20260506000007 82 54 0.9 4.3 0.06 0.06 0.06 76 1005.3
20260505235502 84 325 0.9 4.3 0.02 0.02 0.02 66 1005.3
20260505235005 84 153 0.9 3.5 0.00 0.00 0.00 55 1004.7
20260505234512 85 11 0.9 7.0 0.00 0.00 0.00 67 1005.0
20260505234008 85 27 0.9 7.0 0.00 0.00 0.00 67 1005.1
20260505233505 85 320 0.9 8.7 0.00 0.00 0.00 66 1004.8
20260505233020 85 170 3.5 8.7 0.00 0.00 0.00 65 1004.7
20260505232511 86 139 3.5 7.8 0.00 0.00 0.00 64 1004.8
20260505232007 87 147 1.7 8.7 0.00 0.00 0.00 63 1004.7
20260505231519 88 292 2.6 8.7 0.00 0.00 0.00 62 1004.6
20260505231009 89 171 1.7 7.8 0.00 0.00 0.00 61 1004.7
20260505230508 89 168 2.6 7.0 0.00 0.00 0.00 60 1004.5
20260505230040 90 167 2.6 7.0 0.00 0.00 0.00 58 1004.5
20260505225511 90 154 1.7 7.0 0.00 0.00 0.00 58 1004.4
20260505225003 89 150 1.7 5.2 0.00 0.00 0.00 58 1004.5
20260505224509 89 273 0.9 7.8 0.00 0.00 0.00 58 1004.5
20260505224011 90 111 1.7 7.8 0.00 0.00 0.00 56 1004.6
20260505223505 91 150 2.6 7.0 0.00 0.00 0.00 51 1004.6
20260505223012 91 178 1.7 7.0 0.00 0.00 0.00 54 1004.4
20260505222506 91 254 1.7 7.0 0.00 0.00 0.00 51 1004.4
20260505222009 90 246 0.9 7.8 0.00 0.00 0.00 52 1004.5
20260505221516 91 230 1.7 7.8 0.00 0.00 0.00 51 1004.6
20260505221006 91 157 1.7 7.8 0.00 0.00 0.00 50 1004.6
20260505220506 91 242 0.9 7.8 0.00 0.00 0.00 52 1004.5
20260505220023 91 316 0.9 5.2 0.00 0.00 0.00 51 1004.3
20260505215509 92 199 0.9 7.0 0.00 0.00 0.00 50 1004.5
20260505215009 91 180 0.9 7.0 0.00 0.00 0.00 49 1004.6
20260505214524 91 294 0.9 5.2 0.00 0.00 0.00 50 1004.6
20260505214006 91 148 1.7 7.8 0.00 0.00 0.00 49 1004.6
20260505213506 91 133 2.6 7.8 0.00 0.00 0.00 51 1004.6
20260505213009 91 231 2.6 7.8 0.00 0.00 0.00 50 1004.7
20260505212509 91 329 1.7 6.1 0.00 0.00 0.00 50 1004.6
20260505212007 92 105 1.7 5.2 0.00 0.00 0.00 51 1004.7
20260505211514 91 46 1.7 6.1 0.00 0.00 0.00 51 1004.8
20260505211007 90 194 1.7 6.1 0.00 0.00 0.00 51 1004.8
20260505210506 91 217 1.7 7.8 0.00 0.00 0.00 51 1004.9
20260505210020 91 307 1.7 9.6 0.00 0.00 0.00 52 1004.9
20260505205507 91 350 1.7 10.4 0.00 0.00 0.00 51 1005.0
20260505205013 92 290 2.6 12.2 0.00 0.00 0.00 52 1005.0
20260505204525 90 360 1.7 12.2 0.00 0.00 0.00 53 1005.1
20260505204010 89 260 1.7 8.7 0.00 0.00 0.00 53 1005.3
20260505203510 90 290 2.6 8.7 0.00 0.00 0.00 51 1005.3
20260505203040 91 296 1.7 6.1 0.00 0.00 0.00 52 1005.2
20260505202503 91 273 1.7 9.6 0.00 0.00 0.00 54 1005.3
20260505202008 90 360 1.7 11.3 0.00 0.00 0.00 53 1005.3
20260505201513 90 219 2.6 11.3 0.00 0.00 0.00 53 1005.4
20260505201007 90 265 1.7 8.7 0.00 0.00 0.00 55 1005.4
20260505200506 89 178 1.7 9.6 0.00 0.00 0.00 56 1005.5
20260505200027 89 101 2.6 9.6 0.00 0.00 0.00 56 1005.5
20260505195506 89 293 2.6 10.4 0.00 0.00 0.00 56 1005.4
20260505195008 89 230 2.6 10.4 0.00 0.00 0.00 60 1005.4
20260505194523 89 140 2.6 7.8 0.00 0.00 0.00 58 1005.4
20260505194009 88 240 1.7 7.8 0.00 0.00 0.00 59 1005.6
20260505193509 87 105 2.6 8.7 0.00 0.00 0.00 58 1005.6
20260505193023 87 174 2.6 8.7 0.00 0.00 0.00 59 1005.5
20260505192507 87 171 1.7 9.6 0.00 0.00 0.00 58 1005.6
20260505192004 87 270 1.7 9.6 0.00 0.00 0.00 59 1005.7
20260505191512 87 212 3.5 8.7 0.00 0.00 0.00 61 1005.5
20260505191008 87 257 1.7 9.6 0.00 0.00 0.00 61 1005.5
20260505190511 87 119 3.5 9.6 0.00 0.00 0.00 61 1005.6
20260505190021 86 276 2.6 9.6 0.00 0.00 0.00 62 1005.6
20260505185511 86 274 1.7 9.6 0.00 0.00 0.00 62 1005.7
20260505185006 85 216 2.6 7.8 0.00 0.00 0.00 64 1005.7
20260505184524 85 253 2.6 8.7 0.00 0.00 0.00 64 1005.7
20260505184009 84 159 1.7 8.7 0.00 0.00 0.00 64 1005.9
20260505183509 84 165 3.5 8.7 0.00 0.00 0.00 65 1006.1
20260505183026 84 219 1.7 8.7 0.00 0.00 0.00 66 1006.0
20260505182502 84 279 0.9 8.7 0.00 0.00 0.00 66 1005.9
20260505182006 83 264 1.7 7.0 0.00 0.00 0.00 65 1006.0
20260505181508 84 111 2.6 7.0 0.00 0.00 0.00 65 1006.0
20260505181006 84 148 1.7 6.1 0.00 0.00 0.00 65 1006.0
20260505180510 83 221 1.7 7.0 0.00 0.00 0.00 65 1006.0
20260505180011 83 157 1.7 7.8 0.00 0.00 0.00 67 1006.2
20260505175510 83 179 1.7 7.8 0.00 0.00 0.00 66 1006.1
20260505175008 84 155 1.7 8.7 0.00 0.00 0.00 65 1006.0
20260505174518 83 217 1.7 8.7 0.00 0.00 0.00 65 1006.1
20260505174007 83 173 2.6 6.1 0.00 0.00 0.00 65 1006.1
20260505173514 84 42 1.7 10.4 0.00 0.00 0.00 65 1006.1
20260505173036 83 292 2.6 10.4 0.00 0.00 0.00 66 1006.0
20260505172507 83 264 1.7 9.6 0.00 0.00 0.00 67 1006.0
20260505172012 82 238 2.6 8.7 0.00 0.00 0.00 65 1006.1
20260505171506 82 198 2.6 11.3 0.00 0.00 0.00 66 1006.1
20260505171005 82 165 3.5 11.3 0.00 0.00 0.00 66 1006.1
20260505170505 82 252 3.5 14.8 0.00 0.00 0.00 66 1006.2
20260505170013 82 241 3.5 14.8 0.00 0.00 0.00 66 1006.2
20260505165506 82 82 1.7 9.6 0.00 0.00 0.00 68 1006.2
20260505165007 80 315 1.7 10.4 0.00 0.00 0.00 69 1006.1
20260505164535 81 245 3.5 10.4 0.00 0.00 0.00 68 1006.2
20260505164008 81 336 3.5 8.7 0.00 0.00 0.00 68 1006.2
20260505163508 80 169 2.6 7.8 0.00 0.00 0.00 1006.2
20260505163023 80 223 3.5 9.6 0.00 0.00 0.00 68 1006.3
20260505162508 81 152 2.6 13.9 0.00 0.00 0.00 68 1006.1
20260505162012 81 259 4.3 10.4 0.00 0.00 0.00 68 1006.1
20260505161526 80 168 3.5 9.6 0.00 0.00 0.00 69 1005.9
20260505161010 80 210 3.5 10.4 0.00 0.00 0.00 70 1005.9
20260505160508 79 172 3.5 10.4 0.00 0.00 0.00 70 1006.0
20260505153022 78 171 2.6 11.3 0.00 0.00 0.00 72 1006.0
20260505152508 78 54 2.6 11.3 0.00 0.00 0.00 72 1006.1
20260505152009 78 99 1.7 11.3 0.00 0.00 0.00 74 1006.1
20260505151524 77 171 2.6 11.3 0.00 0.00 0.00 74 1006.2
20260505151009 77 260 3.5 11.3 0.00 0.00 0.00 74 1006.2
20260505150510 77 202 1.7 7.8 0.00 0.00 0.00 74 1006.2
20260505140511 74 349 1.7 7.8 0.00 0.00 0.00 78 1006.2
20260505125015 72 179 1.7 8.7 0.00 0.00 0.00 82 1005.6
20260505124530 71 224 1.7 8.7 0.00 0.00 0.00 82 1005.7
20260505124017 71 157 1.7 5.2 0.00 0.00 0.00 82 1005.6
20260505123514 71 270 0.9 7.0 0.00 0.00 0.00 82 1005.5
20260505123025 71 198 2.6 7.0 0.00 0.00 0.00 82 1005.4
20260505122511 71 239 0.9 8.7 0.00 0.00 0.00 82 1005.2
20260505122013 71 167 1.7 8.7 0.00 0.00 0.00 82 1005.1
20260505121518 71 271 1.7 7.8 0.00 0.00 0.00 82 1005.0
20260505121007 71 331 2.6 7.8 0.00 0.00 0.00 83 1005.2
20260505120508 71 180 2.6 7.0 0.00 0.00 0.00 83 1005.2
20260505120023 71 172 0.9 8.7 0.00 0.00 0.00 83 1005.2
20260505115511 71 115 1.7 8.7 0.00 0.00 0.00 83 1005.1
20260505115012 71 166 2.6 10.4 0.00 0.00 0.00 83 1005.0
20260505114533 71 170 3.5 10.4 0.00 0.00 0.00 83 1004.9
20260505114009 71 345 1.7 7.8 0.00 0.00 0.00 83 1004.9
20260505113509 71 271 1.7 6.1 0.00 0.00 0.00 83 1005.0
20260505113028 70 206 2.6 6.1 0.00 0.00 0.00 83 1005.0
20260505112509 70 166 0.9 5.2 0.00 0.00 0.00 83 1004.8
20260505112010 70 225 1.7 11.3 0.00 0.00 0.00 83 1004.9
20260505111532 71 192 0.9 11.3 0.00 0.00 0.00 83 1004.9
20260505111011 71 272 0.9 7.0 0.00 0.00 0.00 83 1005.0
20260505110507 70 193 2.6 7.0 0.00 0.00 0.00 83 1005.0
20260505102006 71 268 1.7 11.3 0.00 0.00 0.00 82 1004.8
20260505101512 71 163 2.6 11.3 0.00 0.00 0.00 82 1004.8
20260505101006 71 178 3.5 8.7 0.00 0.00 0.00 82 1005.1
20260505100507 71 128 1.7 7.8 0.00 0.00 0.00 82 1005.1
20260505100021 71 154 1.7 8.7 0.00 0.00 0.00 82 1005.1
20260505095510 71 312 1.7 8.7 0.00 0.00 0.00 82 1005.0
20260505095009 71 131 1.7 9.6 0.00 0.00 0.00 82 1005.1
20260505094524 71 178 1.7 10.4 0.00 0.00 0.00 82 1005.2
20260505094014 71 178 3.5 9.6 0.00 0.00 0.00 82 1005.1
20260505093510 71 140 2.6 8.7 0.00 0.00 0.00 81 1005.2
20260505093027 71 155 1.7 5.2 0.00 0.00 0.00 82 1005.4
20260505092512 71 179 1.7 8.7 0.00 0.00 0.00 82 1005.3